Hourly Data Report for March 31, 2004

TORONTO CITY
ONTARIO

43°40'00.000" N
79°24'00.000" W
112.50 m
6158355
71508
XTO

Download Data

Hourly Data (March 2004)
Hourly Data Report for March 31, 2004
TIME
LST
Temp Definition
°C
Dew Point Definition
°C
Rel Hum Definition
%
Precip. Amount Definition
mm

Wind Dir Definition
10's deg

Wind Spd Definition
km/h
Visibility Definition
km
Stn Press Definition
kPa
Hmdx Definition


Wind Chill Definition


Weather Definition


00:00 6.1 5.5 96   LegendMM LegendMM LegendMM 100.09     LegendNANA
01:00 6.3 5.7 96   LegendMM LegendMM LegendMM 100.05     LegendNANA
02:00 6.3 5.7 96   LegendMM LegendMM LegendMM 100.01     LegendNANA
03:00 6.2 5.6 96   LegendMM LegendMM LegendMM 99.96     LegendNANA
04:00 6.2 5.8 97   LegendMM LegendMM LegendMM 99.94     LegendNANA
05:00 5.9 5.5 97   LegendMM LegendMM LegendMM 99.92     LegendNANA
06:00 6.0 5.7 98   LegendMM LegendMM LegendMM 99.91     LegendNANA
07:00 5.5 5.2 98   LegendMM LegendMM LegendMM 99.94     LegendNANA
08:00 5.3 5.2 99   LegendMM LegendMM LegendMM 100.00     LegendNANA
09:00 5.8 5.5 98   LegendMM LegendMM LegendMM 99.99     LegendNANA
10:00 5.7 5.4 98   LegendMM LegendMM LegendMM 100.03     LegendNANA
11:00 6.1 6.0 99   LegendMM LegendMM LegendMM 99.97     LegendNANA
12:00 6.8 5.9 94   LegendMM LegendMM LegendMM 99.98     LegendNANA
13:00 7.3 6.1 92   LegendMM LegendMM LegendMM 99.94     LegendNANA
14:00 7.2 5.8 91   LegendMM LegendMM LegendMM 99.92     LegendNANA
15:00 7.2 6.0 92   LegendMM LegendMM LegendMM 99.88     LegendNANA
16:00 7.4 6.5 94   LegendMM LegendMM LegendMM 99.88     LegendNANA
17:00 6.8 6.2 96   LegendMM LegendMM LegendMM 99.92     LegendNANA
18:00 6.8 6.4 97   LegendMM LegendMM LegendMM 99.95     LegendNANA
19:00 6.9 6.3 96   LegendMM LegendMM LegendMM 99.94     LegendNANA
20:00 6.5 5.1 91   LegendMM LegendMM LegendMM 100.02     LegendNANA
21:00 6.0 4.5 90   LegendMM LegendMM LegendMM 100.02     LegendNANA
22:00 6.0 4.2 88   LegendMM LegendMM LegendMM 100.02     LegendNANA
23:00 5.9 3.9 87   LegendMM LegendMM LegendMM 99.99     LegendNANA

Notes on Data Quality.

Legend

  • E = Estimated
  • M = Missing
  • NA = Not Available*
  • [empty] = Indicates an unobserved value
Date modified: